[[{"header":{"parameterUnit":"m.s-1","parameterCategory":1,"la1":30.2991,"la2":30.254,"lo1":-89.0895,"lo2":-89.0444,"dy":0.0017,"dx":0.0017,"nx":28,"ny":28,"refTime":"2024-07-29T03:00:00:Z","depth":0,"parameterNumber":2,"parameterNumberName":"U-component_of_WINDS"},"data":[0,0,0,0,0,0,0,0,0,0,0,0,0,0,0,0,0,0,0,0,0,0,0,0,0,0,0,0,0,0,0,0,0,0,0,0,0,0,0,0,0,0,0,0,0,0,0,0,0,0,0,0,0,0,0,0,0,0,-0.6794,-0.6793,0,-0.6714,-0.6713,-0.6712,-0.6664,-0.6664,-0.6663,-0.6663,-0.6581,-0.6579,-0.6577,0,0,0,0,0,0,0,0,0,0,0,0,0,-0.6904,-0.6902,-0.6794,-0.6793,-0.6792,-0.6714,-0.6713,-0.6712,-0.6664,-0.6664,-0.6663,-0.6663,-0.6582,-0.6579,-0.6577,0,0,0,0,0,0,0,0,0,0,0,0,0,-0.6844,-0.6902,-0.6794,-0.6758,-0.6754,-0.6715,-0.6713,-0.6712,-0.6664,-0.6664,-0.6663,-0.6663,-0.6582,-0.658,-0.6577,-0.6566,0,0,-0.6568,-0.6566,0,0,0,0,0,0,0,0,-0.6847,-0.684,-0.6765,-0.6761,-0.6756,-0.6699,-0.6722,-0.6663,-0.6664,-0.6698,-0.6663,-0.6663,-0.662,-0.6614,-0.66,-0.6562,-0.6558,-0.6567,-0.6566,-0.6564,-0.6564,0,0,0,0,0,0,0,-0.6851,-0.6843,-0.6762,-0.6764,-0.6758,-0.6746,-0.6737,-0.6711,-0.6662,-0.6695,-0.6692,-0.6683,-0.6618,-0.6603,-0.6598,-0.6557,-0.6568,-0.6565,-0.6563,-0.6562,-0.6507,-0.6507,0,0,0,0,0,0,-0.6861,-0.6847,-0.6765,-0.676,-0.6802,-0.6745,-0.6735,-0.6717,-0.6662,-0.6654,-0.6683,-0.6681,-0.6608,-0.6601,-0.6595,-0.6579,-0.6564,-0.6562,-0.656,-0.6506,-0.6507,-0.6507,0,0,0,0,0,0,-0.6864,-0.6854,-0.6768,-0.6802,-0.679,-0.6743,-0.6724,-0.6716,-0.6701,-0.6653,-0.6645,-0.6677,-0.6608,-0.6599,-0.6574,-0.6575,-0.656,-0.6558,-0.6506,-0.6506,-0.6507,-0.6546,0,0,0,0,0,0,-0.6867,-0.6856,-0.6851,-0.6802,-0.6789,-0.6748,-0.6724,-0.6715,-0.6696,-0.6692,-0.6645,-0.6637,-0.6607,-0.6578,-0.6571,-0.6571,-0.6555,-0.6506,-0.6506,-0.6507,-0.6545,-0.6548,-0.6551,0,0,0,0,0,-0.6871,-0.6865,-0.6851,-0.6841,-0.6782,-0.6748,-0.674,-0.6706,-0.6697,-0.6691,-0.6661,-0.6638,-0.6576,-0.6576,-0.6567,-0.6566,-0.6505,-0.6506,-0.6507,-0.6543,-0.6547,-0.6551,0,0,0,0,0,0,-0.6914,-0.6858,-0.6842,-0.682,-0.6789,-0.674,-0.6733,-0.6712,-0.6683,-0.6681,-0.6639,-0.6629,-0.6608,-0.6584,-0.6585,-0.6553,-0.6538,-0.6537,-0.6569,-0.6573,-0.6576,-0.6582,-0.6553,0,0,0,0,0,-0.6922,-0.6899,-0.6851,-0.6836,-0.6822,-0.678,-0.6764,-0.6741,-0.6707,-0.6694,-0.6662,-0.663,-0.6604,-0.6587,-0.656,-0.6541,-0.653,-0.6536,-0.654,-0.6542,-0.6542,-0.6531,-0.6533,-0.6509,-0.6509,-0.6509,0,0,-0.6936,-0.6902,-0.689,-0.6844,-0.6818,-0.6795,-0.677,-0.6747,-0.673,-0.6691,-0.6665,-0.664,-0.6602,-0.658,-0.6569,-0.656,-0.6546,-0.6543,-0.6546,-0.6544,-0.6532,-0.6534,-0.6536,-0.651,-0.651,-0.6509,0,0,-0.695,-0.6922,-0.6907,-0.6882,-0.6842,-0.6815,-0.6811,-0.6765,-0.6748,-0.6721,-0.6691,-0.667,-0.6625,-0.66,-0.6581,-0.6587,-0.6565,-0.6579,-0.6595,-0.6585,-0.6587,-0.6588,-0.659,-0.6592,-0.6579,-0.6579,-0.6579,0,-0.6973,-0.6938,-0.6902,-0.6881,-0.6862,-0.6826,-0.681,-0.6787,-0.6741,-0.6728,-0.6719,-0.6662,-0.6634,-0.6606,-0.6608,-0.6593,-0.6588,-0.6584,-0.659,-0.6591,-0.6591,-0.6593,-0.6594,-0.6581,-0.6581,-0.658,-0.658,0,-0.6968,-0.6944,-0.6937,-0.6893,-0.6873,-0.6855,-0.6817,-0.68,-0.6779,-0.6752,-0.6726,-0.6691,-0.6657,-0.6648,-0.6627,-0.6617,-0.6613,-0.6598,-0.6581,-0.6596,-0.6597,-0.6597,-0.6584,-0.6583,-0.6582,-0.6582,0,0,-0.7006,-0.6944,-0.6942,-0.6922,-0.6876,-0.6857,-0.6838,-0.6804,-0.6792,-0.6761,-0.6744,-0.6707,-0.6693,-0.6671,-0.6646,-0.6637,-0.6645,-0.6623,-0.6621,-0.6628,-0.6632,-0.6644,-0.6645,-0.663,-0.663,-0.663,-0.6635,0,-0.7014,-0.6977,-0.6945,-0.692,-0.6898,-0.6864,-0.6847,-0.6817,-0.6792,-0.677,-0.6742,-0.6717,-0.6699,-0.6686,-0.6676,-0.6646,-0.6645,-0.6645,-0.6613,-0.6613,-0.6624,-0.6646,-0.6658,-0.6665,-0.6635,-0.6635,-0.6635,0,-0.7018,-0.6989,-0.6962,-0.6919,-0.6909,-0.6894,-0.6861,-0.684,-0.6806,-0.6789,-0.6766,-0.674,-0.6718,-0.6705,-0.6674,-0.6675,-0.666,-0.6644,-0.6643,-0.6639,-0.6625,-0.6642,-0.6666,-0.6667,-0.6636,-0.6636,-0.6636,0,-0.7049,-0.7004,-0.6982,-0.6966,-0.6915,-0.6906,-0.6884,-0.685,-0.6832,-0.6803,-0.6791,-0.676,-0.6743,-0.672,-0.6686,-0.668,-0.6659,-0.6643,-0.6644,-0.6645,-0.6641,-0.6641,-0.6663,-0.6632,-0.6632,-0.6632,-0.6632,0,-0.706,-0.7045,-0.6995,-0.6982,-0.6964,-0.6927,-0.691,-0.6886,-0.6856,-0.6837,-0.6805,-0.6788,-0.6746,-0.6724,-0.6698,-0.6676,-0.6669,-0.6654,-0.6647,-0.6657,-0.6659,-0.6646,-0.6645,-0.6632,-0.6632,-0.6632,-0.6632,0,-0.7092,-0.7057,-0.7031,-0.6986,-0.6974,-0.6963,-0.6924,-0.691,-0.6883,-0.686,-0.6853,-0.6811,-0.6784,-0.6748,-0.671,-0.6692,-0.6674,-0.6663,-0.6686,-0.6681,-0.6684,-0.6684,-0.6698,-0.6698,-0.6668,-0.6668,-0.6668,0,-0.7101,-0.7089,-0.7042,-0.7028,-0.7007,-0.6984,-0.6966,-0.6929,-0.6911,-0.6872,-0.6862,-0.6833,-0.6807,-0.6765,-0.6731,-0.6702,-0.669,-0.6697,-0.6685,-0.6695,-0.669,-0.6691,-0.669,-0.67,-0.67,-0.6701,-0.6701,0,-0.7122,-0.7106,-0.7081,-0.705,-0.7029,-0.7003,-0.6976,-0.6966,-0.6923,-0.6905,-0.6877,-0.6857,-0.6818,-0.6789,-0.6755,-0.6733,-0.671,-0.6705,-0.6704,-0.6713,-0.6726,-0.6719,-0.6693,-0.6705,-0.6705,-0.6704,-0.6704,-0.6704,-0.7142,-0.713,-0.7095,-0.7068,-0.7044,-0.702,-0.7004,-0.6976,-0.6952,-0.6917,-0.6897,-0.687,-0.6836,-0.6789,-0.6768,-0.6746,-0.6737,-0.6735,-0.6734,-0.6734,-0.6737,-0.673,-0.6739,-0.6739,-0.6739,-0.6739,-0.6739,0,-0.7161,-0.7137,-0.7113,-0.7076,-0.7055,-0.7036,-0.7005,-0.6989,-0.6965,-0.6936,-0.6912,-0.688,-0.6851,-0.6816,-0.6786,-0.6775,-0.6764,-0.6768,-0.6768,-0.6763,-0.6747,-0.6751,-0.6778,-0.6778,-0.6778,-0.6778,-0.6778,-0.6778,-0.7168,-0.7146,-0.7126,-0.7092,-0.7068,-0.7042,-0.7026,-0.7003,-0.6979,-0.6945,-0.6922,-0.6899,-0.6867,-0.6834,-0.6808,-0.6798,-0.6788,-0.6796,-0.6783,-0.6768,-0.6765,-0.6761,-0.6765,-0.6794,-0.6794,-0.6801,-0.6801,-0.6801]},{"header":{"parameterUnit":"m.s-1","parameterCategory":1,"la1":30.2991,"la2":30.254,"lo1":-89.0895,"lo2":-89.0444,"dy":0.0017,"dx":0.0017,"nx":28,"ny":28,"refTime":"2024-07-29T03:00:00:Z","depth":0,"parameterNumber":3,"parameterNumberName":"V-component_of_WINDS"},"data":[0,0,0,0,0,0,0,0,0,0,0,0,0,0,0,0,0,0,0,0,0,0,0,0,0,0,0,0,0,0,0,0,0,0,0,0,0,0,0,0,0,0,0,0,0,0,0,0,0,0,0,0,0,0,0,0,0,0,3.3777,3.3778,0,3.3846,3.3847,3.3848,3.382,3.3819,3.3817,3.3815,3.3881,3.3884,3.3887,0,0,0,0,0,0,0,0,0,0,0,0,0,3.3618,3.3621,3.3777,3.3778,3.3779,3.3846,3.3847,3.3848,3.382,3.3818,3.3817,3.3815,3.388,3.3883,3.3887,0,0,0,0,0,0,0,0,0,0,0,0,0,3.3687,3.3622,3.3777,3.3774,3.3774,3.3846,3.3847,3.3848,3.3821,3.3818,3.3816,3.3814,3.3878,3.3883,3.3888,3.3965,0,0,3.3902,3.3905,0,0,0,0,0,0,0,0,3.3683,3.3692,3.3773,3.3774,3.3775,3.3822,3.3814,3.3887,3.3821,3.3803,3.3815,3.3813,3.3863,3.3869,3.3887,3.3968,3.3971,3.3903,3.3906,3.3908,3.3909,0,0,0,0,0,0,0,3.3678,3.3689,3.3804,3.3775,3.3775,3.3767,3.3774,3.3828,3.3845,3.3804,3.3803,3.3811,3.3863,3.3882,3.3888,3.3972,3.3903,3.3907,3.391,3.3912,3.412,3.4123,0,0,0,0,0,0,3.3674,3.3686,3.3802,3.3806,3.3722,3.3772,3.378,3.3809,3.3845,3.3848,3.3813,3.381,3.3875,3.3882,3.389,3.3983,3.3908,3.3912,3.3915,3.4118,3.4121,3.4124,0,0,0,0,0,0,3.367,3.3684,3.3799,3.3746,3.376,3.3777,3.381,3.3812,3.3831,3.3851,3.3854,3.383,3.3873,3.3883,3.3947,3.3985,3.3915,3.3919,3.4115,3.4119,3.4122,3.417,0,0,0,0,0,0,3.3666,3.3683,3.3714,3.3747,3.3763,3.3857,3.3813,3.3815,3.384,3.3836,3.3868,3.3871,3.3872,3.394,3.3952,3.399,3.3923,3.4111,3.4116,3.4121,3.4165,3.4175,3.4184,0,0,0,0,0,3.366,3.3724,3.3716,3.373,3.3802,3.3859,3.3868,3.387,3.3844,3.3874,3.3887,3.387,3.3979,3.3947,3.396,3.4,3.4109,3.4115,3.4121,3.4161,3.4173,3.4183,0,0,0,0,0,0,3.3694,3.3728,3.372,3.3796,3.3825,3.3855,3.3893,3.3883,3.3919,3.3913,3.3912,3.3919,3.3985,3.3999,3.3963,3.4077,3.404,3.4049,3.4066,3.4077,3.4087,3.4082,3.3927,0,0,0,0,0,3.371,3.3756,3.3783,3.3847,3.3862,3.3875,3.39,3.3899,3.3929,3.394,3.3958,3.3985,3.4026,3.4052,3.4091,3.4167,3.4173,3.4201,3.421,3.4218,3.4225,3.4266,3.4279,3.4143,3.4143,3.4143,0,0,3.3744,3.3769,3.3797,3.3854,3.3877,3.3922,3.3886,3.3935,3.3968,3.3947,3.4009,3.4023,3.4053,3.4124,3.4155,3.4137,3.4264,3.4225,3.4231,3.4235,3.4273,3.4286,3.4298,3.4147,3.4147,3.4146,0,0,3.383,3.3853,3.3909,3.3933,3.3968,3.3977,3.399,3.4021,3.403,3.4093,3.4077,3.4116,3.4186,3.4208,3.4229,3.4323,3.4309,3.4335,3.4384,3.4423,3.4434,3.4443,3.4476,3.4488,3.4343,3.4343,3.4343,0,3.3867,3.3937,3.3939,3.3991,3.4016,3.4,3.4056,3.4079,3.4124,3.4141,3.412,3.4208,3.4227,3.4302,3.4326,3.4343,3.4357,3.4332,3.4433,3.4442,3.4451,3.4482,3.4495,3.4346,3.4346,3.4345,3.4345,0,3.398,3.4029,3.407,3.4116,3.4146,3.4199,3.4208,3.4238,3.4234,3.4244,3.4307,3.433,3.4373,3.4391,3.4387,3.4465,3.4453,3.4433,3.4395,3.4467,3.4496,3.4508,3.435,3.4349,3.4348,3.4348,0,0,3.4088,3.4136,3.4151,3.4171,3.4209,3.4246,3.4298,3.4341,3.4366,3.4398,3.4441,3.45,3.4482,3.4505,3.4504,3.4539,3.4611,3.4514,3.4515,3.4531,3.4698,3.4713,3.4727,3.4602,3.4605,3.4606,3.4695,0,3.4176,3.427,3.4274,3.4358,3.4402,3.4389,3.4434,3.4461,3.4471,3.4509,3.452,3.4562,3.4535,3.4549,3.4583,3.4595,3.4645,3.4589,3.4641,3.4642,3.4633,3.4743,3.4758,3.4841,3.4707,3.4709,3.471,0,3.4291,3.4328,3.4418,3.445,3.4468,3.4509,3.4549,3.4586,3.4616,3.4621,3.4648,3.4641,3.4693,3.4654,3.4724,3.4686,3.4707,3.4716,3.472,3.4724,3.468,3.4749,3.4868,3.488,3.4729,3.4727,3.4726,0,3.436,3.4432,3.4496,3.4514,3.4552,3.4581,3.4598,3.4626,3.4652,3.4686,3.4703,3.4742,3.4763,3.4793,3.4797,3.4768,3.4867,3.4829,3.4872,3.4872,3.4893,3.4891,3.5016,3.4907,3.4907,3.4907,3.4907,0,3.4458,3.4513,3.4527,3.4566,3.4627,3.463,3.469,3.4704,3.4729,3.4769,3.4759,3.4796,3.4799,3.4837,3.484,3.4897,3.4907,3.4911,3.4911,3.4912,3.4911,3.4925,3.492,3.491,3.491,3.4909,3.4908,0,3.4545,3.4557,3.4625,3.4656,3.4665,3.4709,3.4735,3.4771,3.4781,3.4831,3.4843,3.4858,3.4902,3.4909,3.496,3.4962,3.5031,3.5025,3.5021,3.502,3.5063,3.5058,3.52,3.5219,3.5099,3.51,3.5101,0,3.4606,3.4649,3.4685,3.4713,3.4732,3.4775,3.4802,3.4806,3.4834,3.4872,3.4903,3.4946,3.4981,3.5052,3.5066,3.5105,3.51,3.5147,3.5105,3.5105,3.51,3.5097,3.5101,3.5155,3.5156,3.5157,3.5158,0,3.4714,3.4718,3.4758,3.4801,3.4833,3.4866,3.4897,3.492,3.4928,3.4959,3.5006,3.5033,3.5086,3.5129,3.5167,3.5183,3.5171,3.5171,3.5183,3.5184,3.518,3.5182,3.5043,3.5167,3.5166,3.5166,3.5165,3.5165,3.4789,3.4827,3.4858,3.4903,3.4928,3.4957,3.4993,3.5008,3.5047,3.5092,3.5091,3.5142,3.5169,3.5221,3.5239,3.5277,3.5261,3.5279,3.5283,3.5287,3.5291,3.5174,3.5284,3.5284,3.5283,3.5283,3.5283,0,3.4896,3.4916,3.4957,3.5002,3.5037,3.5026,3.506,3.5089,3.5134,3.5162,3.5197,3.525,3.5291,3.5309,3.5349,3.5376,3.5372,3.5387,3.5384,3.5388,3.5303,3.5288,3.5389,3.5389,3.5389,3.5389,3.5389,3.5389,3.4955,3.5018,3.5025,3.5099,3.5118,3.5169,3.5189,3.5215,3.5238,3.5298,3.5333,3.5345,3.5368,3.541,3.5447,3.5451,3.5466,3.5483,3.5485,3.5405,3.5394,3.5384,3.537,3.5486,3.5487,3.5566,3.5567,3.5568]}]]